Rifle, CO

1:44 AM MDT on August 31, 2016 (GMT -0600)
Garfield County Regional

Weather History for KRIL - April, 2014

Change the Weather History Date:

Wednesday, April 16, 2014

  Actual Average Record
Temperature  
Mean Temperature 46 °F 48 °F  
Max Temperature 58 °F 63 °F 85 °F (1936)
Min Temperature 34 °F 33 °F 16 °F (1999)
Degree Days  
Heating Degree Days 19 17  
Month to date heating degree days 320 304  
Since 1 July heating degree days 6256 6088  
Cooling Degree Days 0 0  
Month to date cooling degree days 0 0  
Year to date cooling degree days 0 0  
Moisture  
Dew Point 16 °F    
Average Humidity 37    
Maximum Humidity 59    
Minimum Humidity 14    
Precipitation  
Precipitation 0.00 in 0.04 in 0.67 in (1920)
Month to date precipitation 0.56 0.63  
Year to date precipitation 2.74 3.40  
Sea Level Pressure  
Sea Level Pressure 29.83 in    
Wind  
Wind Speed 6 mph (WNW)    
Max Wind Speed 14 mph    
Max Gust Speed 23 mph    
Visibility 10 miles    
Events      
T = Trace of Precipitation, MM = Missing Value Source: NWS Daily Summary

Daily Weather History Graph

Daily Weather History Graph

Search for Another Location

Airport or City:

Trip Planner

Search our weather history database for the weather conditions in past years. The results will help you decide how hot, cold, wet, or windy it might be!

Date:

Astronomy

Apr. 16, 2014 Rise Set
Actual Time 6:32 AM MDT 7:49 PM MDT
Civil Twilight 6:04 AM MDT 8:17 PM MDT
Nautical Twilight 5:30 AM MDT 8:51 PM MDT
Astronomical Twilight 4:55 AM MDT 9:26 PM MDT
Moon 9:36 PM MDT (4/16) 7:21 AM MDT (4/16)
Length of Visible Light 14h 13m
Length of Day
13h 17m
Full, 98% of the Moon is Illuminated
Apr 16
Full
Apr 22
Last Quarter
Apr 29
New
May 6
First Quarter
May 14
Full

Hourly Weather History & Observations

Time (MDT) Temp. Windchill Dew Point Humidity Pressure Visibility Wind Dir Wind Speed Gust Speed Precip Events Conditions
12:53 AM 45.0 °F 43.5 °F 28.0 °F 52% 29.72 in 10.0 mi NE 3.5 mph - N/A   Scattered Clouds
1:53 AM 46.0 °F 41.4 °F 24.1 °F 42% 29.72 in 10.0 mi WSW 9.2 mph - N/A   Overcast
2:53 AM 46.9 °F - 19.9 °F 34% 29.71 in 10.0 mi WSW 10.4 mph - N/A   Overcast
3:53 AM 46.0 °F 43.9 °F 23.0 °F 40% 29.74 in 10.0 mi WNW 4.6 mph - N/A   Mostly Cloudy
4:53 AM 46.0 °F 39.9 °F 15.1 °F 29% 29.76 in 10.0 mi NNW 13.8 mph 23.0 mph N/A   Partly Cloudy
5:53 AM 45.0 °F - 12.9 °F 27% 29.81 in 10.0 mi North - - N/A   Clear
6:53 AM 43.0 °F 36.8 °F 16.0 °F 34% 29.85 in 10.0 mi WNW 11.5 mph - N/A   Clear
7:53 AM 43.0 °F 38.8 °F 17.1 °F 35% 29.89 in 10.0 mi WNW 6.9 mph - N/A   Clear
8:53 AM 44.1 °F 39.5 °F 17.1 °F 34% 29.89 in 10.0 mi WNW 8.1 mph - N/A   Clear
9:53 AM 46.0 °F 43.1 °F 15.1 °F 29% 29.89 in 10.0 mi West 5.8 mph - N/A   Clear
10:53 AM 48.0 °F - 15.1 °F 27% 29.89 in 10.0 mi Variable 4.6 mph - N/A   Clear
12:53 PM 53.1 °F - 7.0 °F 16% 29.86 in 10.0 mi NNW 3.5 mph - N/A   Clear
1:53 PM 55.0 °F - 6.1 °F 14% 29.83 in 10.0 mi Calm Calm - N/A   Clear
2:53 PM 55.9 °F - 9.0 °F 15% 29.80 in 10.0 mi Variable 3.5 mph - N/A   Clear
3:53 PM 55.9 °F - 9.0 °F 15% 29.78 in 10.0 mi West 4.6 mph - N/A   Clear
4:53 PM 57.9 °F - 10.9 °F 16% 29.78 in 10.0 mi WSW 5.8 mph - N/A   Scattered Clouds
5:53 PM 57.9 °F - 10.9 °F 16% 29.79 in 10.0 mi West 8.1 mph - N/A   Partly Cloudy
6:53 PM 55.0 °F - 12.9 °F 19% 29.82 in 10.0 mi West 10.4 mph - N/A   Clear
7:53 PM 50.0 °F - 17.1 °F 27% 29.86 in 10.0 mi West 3.5 mph - N/A   Clear
8:53 PM 46.9 °F - 16.0 °F 29% 29.89 in 10.0 mi West 8.1 mph - N/A   Clear
9:53 PM 42.1 °F - 19.9 °F 41% 29.93 in 10.0 mi Calm Calm - N/A   Clear
10:53 PM 37.0 °F 33.3 °F 23.0 °F 57% 29.95 in 10.0 mi SE 4.6 mph - N/A   Clear
11:53 PM 36.0 °F - 23.0 °F 59% 29.97 in 10.0 mi Calm Calm - N/A   Partly Cloudy